Theta_e
350 350 349 350 349 348 348 348 348 348 348 349 349 349 348 347 347 347 347 349 351 351 351 350 348 348 349 349 349 349 349 349 345 344 345 346 347 344 340 341 342 342 342 344 344 344 342 341 340 340 340 340 340 341 341 341 341 341 341 341 341 342 343 343 344 343 344 344 344 345 345 344 345 345 344 345 346 346 345 345 345 344 345 344 343
348 348 348 349 348 348 349 349 349 348 349 350 349 349 349 347 347 347 347 348 350 350 351 351 349 348 348 349 350 350 349 349 346 344 345 346 347 346 342 340 341 342 342 343 345 345 345 345 344 344 344 345 345 345 346 345 345 345 345 345 345 345 345 345 346 346 346 346 346 346 346 345 345 345 344 345 345 345 345 345 344 344 345 344 343
347 348 348 348 347 348 349 350 350 349 350 350 350 350 350 348 347 347 347 348 349 349 350 351 351 350 349 349 349 350 349 349 348 345 346 346 346 346 344 342 341 341 341 343 344 345 346 346 346 346 347 347 348 348 348 348 348 348 347 347 347 346 346 346 346 347 347 347 347 346 346 345 345 345 345 345 345 344 345 345 344 344 344 343 343
346 347 347 348 348 348 349 351 351 350 349 349 350 349 349 350 347 347 347 347 347 348 350 351 352 351 350 350 349 350 350 350 349 347 345 344 344 346 346 346 345 343 342 343 345 345 345 346 347 347 347 347 348 348 348 348 348 348 347 348 347 346 347 347 347 347 347 347 346 346 345 345 346 345 345 345 344 345 345 345 344 344 343 343 342
348 347 348 349 349 349 350 351 351 350 350 350 350 349 349 351 349 347 347 347 348 349 350 351 351 351 350 350 349 350 349 349 350 349 347 345 345 345 346 346 346 346 344 343 343 345 345 346 347 347 347 347 347 347 346 347 348 348 347 348 347 347 348 348 348 347 347 346 345 345 345 345 346 346 346 345 344 345 345 345 345 343 343 343 342
349 349 349 350 350 350 350 351 350 350 350 350 350 350 350 351 351 349 348 349 350 350 351 350 350 351 350 349 349 349 349 350 351 350 350 348 346 344 345 344 344 346 345 344 342 342 343 344 345 346 346 347 347 347 346 347 348 348 347 348 347 347 347 348 348 347 346 345 345 345 345 345 346 346 345 344 344 345 344 345 345 343 343 343 343
350 349 349 350 351 350 350 350 350 350 350 350 351 351 351 351 351 350 349 350 350 350 351 351 351 351 350 349 349 348 349 351 350 350 350 350 348 346 345 344 344 344 343 345 344 341 340 341 341 342 342 343 344 345 345 346 347 346 347 346 346 346 346 346 346 345 344 343 344 344 344 345 345 345 345 344 344 344 344 344 344 343 343 342 342
349 349 348 350 350 350 350 350 350 351 351 351 352 352 352 350 350 350 350 351 350 350 351 351 351 351 350 350 349 348 349 350 350 351 351 349 349 348 347 346 344 343 343 344 345 342 340 340 340 339 339 338 339 339 339 340 341 341 342 342 343 344 345 345 344 343 343 343 344 344 345 345 345 344 344 345 345 344 344 343 342 342 342 342 341
347 348 348 348 348 349 350 349 350 351 351 352 352 352 351 349 349 349 348 350 351 350 351 351 350 350 350 350 350 348 349 350 350 350 349 349 350 349 349 348 346 345 345 346 346 344 343 343 343 342 341 340 340 339 338 337 336 336 337 337 338 340 341 342 343 343 343 344 344 344 344 344 343 342 342 342 342 342 341 341 341 341 342 342 340
347 348 349 348 348 350 351 350 350 352 351 352 352 352 351 350 350 349 346 348 351 351 350 350 350 349 349 349 349 348 349 348 348 348 348 349 350 350 349 348 347 347 347 348 347 346 346 346 346 346 345 345 345 344 343 341 340 340 340 339 339 339 340 341 341 342 342 343 343 343 342 341 341 339 338 338 338 338 338 338 338 338 339 340 340
347 348 349 348 349 351 351 351 351 352 352 352 353 352 352 351 351 349 347 347 349 349 349 349 350 349 349 349 349 347 348 347 348 349 349 350 350 349 350 348 347 347 347 347 348 347 347 347 346 346 345 345 345 345 345 344 343 343 343 343 342 342 342 342 342 341 342 342 342 342 341 340 339 338 336 335 334 334 334 335 335 335 336 336 337
347 348 348 348 350 351 351 352 353 352 352 353 354 352 352 353 351 348 348 349 348 347 347 349 350 350 349 349 349 347 348 348 349 350 350 350 349 349 350 349 348 347 347 347 347 347 345 344 344 344 343 343 344 344 344 344 343 342 342 343 343 344 343 343 343 343 343 343 343 342 342 341 339 338 336 333 332 331 330 330 330 331 333 333 334
348 348 348 348 349 350 351 352 354 353 353 354 354 353 353 353 351 347 348 352 352 349 347 348 349 350 349 349 348 348 348 349 350 351 350 351 350 349 349 349 349 347 347 347 346 345 345 344 343 343 343 343 343 344 344 344 344 342 342 341 342 342 342 342 342 343 342 342 342 341 340 339 338 336 334 332 330 329 328 328 328 328 329 330 331
348 347 347 348 349 350 350 351 353 353 352 353 354 354 353 353 353 350 348 351 352 349 345 347 349 349 349 349 349 348 348 350 350 349 349 349 349 349 349 348 350 349 347 345 345 345 347 346 344 343 344 344 344 344 344 344 344 344 344 343 341 340 340 340 340 340 340 340 340 339 338 336 335 333 332 331 330 329 329 329 329 329 328 328 329
348 348 348 349 350 350 350 350 351 353 353 353 353 353 354 354 354 354 353 350 349 347 344 345 348 349 349 349 348 348 348 350 349 347 348 348 348 349 349 349 350 349 346 345 345 345 346 346 345 345 344 344 344 343 343 343 343 344 344 344 343 340 338 338 338 339 339 339 339 338 337 337 336 336 335 335 335 335 335 334 334 334 332 332 332
348 349 349 350 350 350 350 351 351 352 355 354 355 354 354 354 352 352 353 351 349 347 345 344 346 348 350 349 349 348 346 348 348 347 346 347 348 348 347 348 349 346 343 345 346 344 344 344 344 344 343 343 343 342 342 342 342 342 343 344 343 342 340 339 339 340 340 341 341 340 340 340 341 341 342 342 342 342 342 342 342 341 340 339 338
349 349 350 350 350 350 350 351 351 352 354 355 355 354 353 353 352 351 351 351 350 349 346 345 345 346 348 349 349 348 346 346 347 348 347 344 346 346 346 347 346 343 342 343 343 342 342 343 342 342 342 342 342 342 342 341 341 341 341 342 343 342 341 341 341 342 342 342 342 343 343 343 343 344 344 344 345 345 345 346 346 346 345 345 344
349 349 350 351 351 351 351 352 352 353 354 354 353 352 353 353 352 351 351 350 350 351 348 346 345 344 346 347 347 347 347 348 347 349 349 345 344 345 346 346 344 340 340 341 341 341 341 340 341 341 341 341 341 341 341 341 341 341 341 341 341 342 342 342 343 343 343 344 343 344 344 344 345 345 345 345 345 346 346 346 347 347 347 347 347
348 348 350 351 351 352 351 352 352 353 354 353 353 354 355 353 351 350 351 348 350 353 350 346 347 346 347 348 349 348 347 347 348 349 350 349 347 346 346 346 344 343 342 342 343 343 341 339 340 341 340 340 340 340 340 340 340 340 340 340 340 341 341 342 342 342 342 343 343 343 343 344 345 345 345 345 346 346 347 347 347 348 348 348 349
349 348 349 349 350 351 352 352 352 353 354 354 355 355 355 352 350 350 349 347 348 352 352 349 347 348 348 348 349 348 346 346 347 348 349 349 348 348 347 346 345 345 344 343 343 342 340 340 339 340 339 339 339 339 339 339 340 340 340 340 340 340 340 341 341 341 342 342 342 343 344 345 345 346 346 347 347 347 348 349 350 350 351 352 352
351 350 349 349 349 350 352 352 352 353 354 355 355 354 353 353 351 351 350 349 347 348 352 352 348 347 347 347 349 348 348 348 347 348 349 348 347 347 347 346 346 345 343 342 341 340 339 339 339 339 339 340 340 340 341 342 341 341 341 341 340 340 340 340 340 341 341 342 345 348 349 349 349 349 350 350 351 351 352 353 353 354 355 355 355
352 351 350 350 351 351 351 352 353 353 354 356 356 353 353 353 352 352 352 350 348 347 351 352 349 346 345 347 350 349 348 349 347 347 348 349 349 347 346 346 344 345 345 343 341 340 340 340 340 341 341 342 342 343 343 343 342 342 341 340 340 340 340 339 340 342 345 348 351 353 352 353 352 353 354 355 355 355 356 356 356 356 356 356 357
352 351 350 350 353 353 352 352 353 353 353 355 356 356 355 355 354 354 353 352 351 350 352 352 349 348 346 348 350 349 348 348 348 348 348 350 351 348 346 345 345 346 345 341 341 341 342 343 343 343 344 344 344 344 343 343 343 342 341 341 341 341 341 343 346 349 352 353 353 353 353 354 355 356 356 357 357 357 357 357 357 357 358 358 357
350 351 350 349 351 354 355 354 354 353 354 355 356 357 357 356 355 354 354 353 353 352 353 354 353 352 351 350 349 348 348 348 347 349 350 353 354 351 348 347 347 347 344 340 342 343 344 346 345 344 345 344 344 345 343 343 342 342 342 343 343 345 346 349 352 354 355 354 354 355 356 357 357 357 358 358 358 358 358 358 358 358 358 356 354
348 349 349 348 348 350 353 355 355 353 354 355 356 356 356 356 355 355 355 354 354 354 355 356 356 354 353 351 350 348 348 349 348 349 351 354 355 353 351 349 347 347 345 340 341 345 347 347 345 344 346 347 347 346 344 344 345 345 345 347 348 350 351 353 355 355 355 356 357 358 358 358 358 358 358 358 358 358 358 358 358 356 354 351 349
346 346 347 347 347 346 348 351 354 353 354 355 355 355 356 356 355 356 356 356 355 355 355 356 356 354 354 353 352 350 349 350 351 350 351 352 353 353 353 352 347 348 348 341 338 343 347 348 346 346 348 349 348 347 346 347 350 350 350 352 353 355 355 355 356 357 357 358 358 359 359 358 359 359 358 358 358 359 359 357 354 351 349 347 346
345 345 345 346 346 346 345 346 348 350 353 355 355 355 356 356 355 356 356 356 355 355 355 356 356 356 355 354 353 351 351 352 352 352 353 353 353 351 353 353 351 351 349 345 342 342 345 347 347 348 350 350 348 348 348 350 352 352 352 355 356 356 356 356 357 357 358 358 358 359 358 358 358 358 358 358 359 359 356 353 349 347 345 344 341
344 343 343 344 345 345 345 345 345 347 351 354 355 355 355 355 355 355 355 355 355 355 354 355 356 357 356 355 353 353 353 354 355 356 355 354 352 348 348 352 353 355 353 351 349 344 344 349 347 349 352 351 349 349 349 353 353 350 352 355 355 355 355 356 357 357 358 358 358 359 358 357 357 358 358 358 357 354 351 348 346 344 341 338 336
345 343 342 343 344 345 345 345 345 345 348 351 354 354 354 355 355 354 355 355 355 354 354 354 356 357 357 356 355 355 354 354 356 357 355 354 352 347 346 349 352 356 356 354 354 348 347 351 351 352 354 351 350 349 349 352 352 347 349 352 353 355 356 356 357 357 357 358 358 359 358 356 357 358 357 354 352 349 348 346 342 339 336 334 335
346 343 343 343 343 344 344 344 344 345 345 347 350 353 353 354 354 354 353 354 354 355 354 354 356 356 357 357 357 356 355 355 356 357 355 354 353 350 347 348 349 354 357 356 356 352 350 353 353 354 353 352 352 351 351 351 349 347 349 350 351 354 355 357 358 358 358 358 358 357 357 356 356 354 351 349 348 347 345 342 338 335 334 334 335
345 344 343 343 342 342 341 341 342 343 344 345 346 349 351 352 353 354 354 352 352 354 355 355 356 355 356 357 357 357 356 356 355 356 356 354 354 352 351 352 352 353 355 356 357 355 354 354 355 355 355 352 351 352 354 353 347 345 349 349 349 352 357 359 359 358 358 358 357 356 356 355 352 349 347 347 347 345 341 338 336 334 334 335 334
345 344 343 343 342 341 339 339 339 340 342 344 344 345 347 349 351 354 356 352 351 353 355 356 356 355 355 357 357 357 357 357 357 357 357 356 355 354 354 355 355 353 354 356 358 359 358 356 354 355 355 353 352 351 352 354 351 347 348 347 346 352 360 362 360 358 357 356 356 356 354 350 347 346 347 347 344 340 337 335 335 334 335 334 331
344 344 343 343 343 342 340 339 339 339 340 342 344 344 345 346 347 350 353 352 351 353 354 355 356 355 354 355 356 356 355 357 359 358 357 357 357 357 356 356 356 356 354 356 358 360 361 359 356 355 353 351 353 353 352 356 356 349 348 349 350 356 361 362 361 358 355 356 356 353 349 345 346 347 346 343 340 337 335 335 334 334 334 331 327
342 342 343 342 343 343 341 338 338 339 340 340 343 344 344 345 345 347 349 350 351 353 353 353 355 355 354 354 356 356 355 355 358 357 357 357 357 357 358 358 358 358 356 356 359 360 361 361 359 357 355 353 355 356 355 356 354 348 350 353 354 359 361 361 362 359 355 357 356 350 345 345 346 346 343 339 336 335 335 334 334 334 331 326 321
341 340 341 342 342 342 340 339 339 339 340 340 341 343 344 344 344 345 346 347 349 352 354 354 355 356 356 356 357 358 358 357 358 358 357 357 357 357 358 359 359 359 358 356 357 360 360 360 360 359 358 358 358 358 356 354 352 351 354 356 355 359 361 361 361 359 356 357 355 348 344 345 345 342 340 337 335 335 334 334 334 332 326 321 317
342 339 338 339 340 341 340 340 341 340 340 340 340 342 343 344 344 344 344 344 346 349 353 354 356 356 356 356 357 358 358 358 358 359 359 357 357 357 358 359 358 359 360 357 356 359 360 360 361 360 358 356 356 356 356 356 355 352 353 356 356 357 360 361 360 358 358 358 354 348 344 343 341 339 338 336 335 334 333 333 332 327 321 317 316
344 341 338 338 338 339 339 340 341 340 340 340 340 340 341 343 344 344 344 344 343 345 348 350 352 354 355 356 356 356 357 357 356 358 358 357 356 357 357 358 359 358 359 359 357 358 360 360 362 362 358 356 356 356 355 356 358 357 355 355 355 355 357 360 360 359 358 357 353 349 346 343 341 339 337 336 334 333 333 332 329 322 317 316 316
345 343 342 339 338 336 336 337 338 338 339 340 340 340 341 342 343 344 344 343 342 343 344 347 349 351 353 355 355 355 355 356 355 356 356 355 356 357 357 357 358 358 359 359 359 359 361 361 361 362 360 359 359 358 355 354 356 359 358 358 358 356 355 358 360 359 357 356 352 349 346 344 342 339 337 336 334 332 333 330 324 319 316 316 316
344 345 344 342 340 337 336 336 335 335 337 339 340 340 341 343 343 344 344 344 344 344 343 346 350 352 353 354 355 355 353 352 352 353 353 354 355 356 357 356 357 358 358 360 361 360 361 361 360 361 361 359 359 358 354 351 353 357 360 360 360 359 358 359 360 359 358 356 353 350 348 347 344 341 337 336 333 332 331 327 321 318 317 316 317
345 345 345 344 342 340 339 338 337 337 338 339 340 340 341 342 343 344 343 343 345 347 345 346 349 351 352 354 356 355 353 350 349 350 351 352 354 356 356 355 356 358 359 359 361 361 360 361 360 360 361 361 360 358 356 355 358 361 361 359 360 360 359 360 360 358 358 356 353 350 350 348 345 341 338 335 333 332 330 325 320 317 317 317 317
346 345 345 345 345 343 342 341 339 340 341 340 340 339 340 341 342 343 343 342 344 347 348 349 351 351 351 353 355 355 351 347 347 348 348 348 350 353 355 354 354 357 359 360 360 361 361 360 360 361 361 361 361 361 360 360 361 362 360 358 359 360 360 361 361 358 356 356 354 351 350 349 345 341 338 335 333 332 328 324 319 318 318 318 318
345 345 345 345 346 345 344 343 342 342 341 340 339 337 338 340 341 343 343 341 341 344 348 350 352 353 351 351 352 351 347 344 346 348 348 346 346 348 351 353 353 356 359 360 360 360 361 360 360 360 360 360 360 360 361 360 360 361 361 361 361 362 360 361 362 359 356 356 357 354 352 351 347 343 339 336 333 331 327 322 319 318 318 318 318
346 345 345 345 346 346 346 346 345 345 344 341 340 339 338 339 340 342 343 343 343 345 348 350 351 353 353 352 351 350 346 344 345 347 347 347 347 345 346 348 350 353 357 359 360 360 360 360 359 359 359 359 359 360 360 360 360 361 362 361 361 361 361 360 360 361 358 356 358 357 354 353 350 345 340 337 333 331 327 322 320 319 319 319 318
347 346 346 347 346 346 347 347 347 347 347 344 343 342 341 340 339 342 345 348 350 350 351 351 352 353 354 354 354 354 351 347 346 347 348 348 348 347 346 346 348 349 352 354 356 359 360 360 359 359 359 359 361 362 360 360 360 361 361 361 360 359 360 360 360 360 360 358 358 358 356 354 351 346 341 338 333 331 329 324 320 319 319 318 318
348 348 348 348 347 347 347 348 348 349 349 347 346 344 343 343 341 342 345 350 353 353 353 353 353 354 354 355 356 356 354 349 347 349 351 351 350 349 349 348 349 349 348 349 350 353 356 359 360 360 360 361 361 361 359 358 358 359 361 362 361 360 360 360 360 360 360 358 358 359 357 355 351 346 343 339 335 332 330 325 321 320 319 318 318
350 350 349 349 349 348 348 349 349 349 350 349 348 347 345 345 344 343 344 348 352 354 353 353 353 354 354 354 355 356 354 351 349 349 350 352 353 352 351 350 348 347 347 348 348 349 351 355 358 359 358 359 359 355 354 355 355 357 359 360 361 362 361 360 359 359 359 358 358 358 358 356 351 346 344 341 337 333 330 327 323 320 319 318 318
352 351 350 351 351 350 349 350 350 350 350 350 349 348 348 346 346 345 345 347 350 353 354 354 353 353 354 354 354 355 355 353 351 350 351 353 354 355 355 354 352 350 350 348 348 348 348 350 352 353 353 355 355 353 353 356 355 353 354 355 357 358 359 358 358 357 357 357 357 357 357 356 351 347 345 342 338 334 332 329 325 321 318 318 318
353 353 352 352 352 351 351 351 351 351 351 350 349 349 349 348 347 346 346 347 349 352 354 355 354 352 352 353 354 354 355 354 352 351 351 353 356 358 358 358 357 356 355 350 346 346 348 348 349 350 350 351 352 352 353 355 355 354 354 354 355 356 357 358 358 358 356 356 356 356 357 355 350 347 346 342 338 336 334 331 328 322 318 319 319
354 355 354 354 353 353 353 352 352 352 352 351 351 350 350 349 347 347 347 347 348 351 354 355 355 353 352 352 352 353 354 354 352 351 351 352 355 358 359 359 359 358 357 354 348 345 345 348 349 349 349 349 350 350 350 351 353 354 355 357 357 357 359 359 359 358 356 355 356 355 356 356 351 347 346 343 338 336 335 335 332 324 319 319 318
355 355 355 355 355 354 354 353 353 353 353 352 352 351 351 350 348 348 348 348 349 351 353 355 356 355 353 352 351 352 353 353 352 351 352 352 354 356 358 359 359 358 358 357 355 350 346 347 349 350 349 349 349 349 350 350 351 352 354 356 357 357 360 360 359 358 356 355 355 354 355 355 350 346 345 343 339 336 335 336 335 328 322 321 320
356 356 356 356 356 356 355 355 354 354 354 354 353 352 352 351 350 349 348 349 351 352 354 355 356 356 355 353 352 352 352 352 352 352 352 352 353 355 358 359 359 359 358 357 358 356 353 351 351 350 349 350 350 350 350 351 352 352 352 353 356 358 360 361 360 357 355 355 355 355 355 354 349 346 344 343 343 341 337 336 336 331 327 325 323
Wind_Speed
7 6 6 6 6 5 4 4 4 4 4 4 4 4 5 4 4 4 4 5 6 7 7 6 7 7 6 6 7 7 6 5 5 4 4 4 4 4 4 4 3 3 3 3 4 4 4 4 4 4 4 4 4 4 5 5 5 5 6 6 6 6 6 6 6 7 7 8 8 8 9 9 9 10 10 10 10 10 10 10 10 10 9 9 10
5 5 5 4 4 4 4 3 3 3 3 3 3 4 4 4 4 3 3 4 4 5 6 6 6 6 6 5 5 5 5 5 4 3 3 3 3 3 3 3 2 2 2 2 2 3 3 3 4 5 5 5 5 5 5 6 6 6 6 5 5 6 6 6 6 7 7 8 8 9 9 9 9 10 10 10 10 10 10 10 9 9 9 9 10
4 3 3 3 3 3 2 2 2 2 3 3 3 3 4 4 4 3 3 3 3 3 4 5 5 5 5 5 5 5 5 5 4 3 2 1 2 2 2 2 2 1 1 1 2 2 2 3 3 4 4 4 4 4 4 4 5 5 5 5 5 6 6 7 7 7 8 8 9 10 10 10 10 10 10 10 10 9 9 9 9 9 9 10 10
3 3 2 2 2 1 1 1 1 2 3 3 3 4 4 3 3 3 3 2 2 2 3 4 4 5 5 5 5 4 4 4 4 3 2 1 1 1 1 2 2 3 2 2 2 2 2 2 3 3 3 3 3 3 3 4 4 5 5 5 6 6 7 7 7 8 8 9 10 10 10 10 10 10 10 10 10 9 9 9 9 9 9 10 10
2 2 2 1 0 0 1 1 1 2 3 4 3 4 4 3 3 3 3 2 1 1 1 2 3 4 4 4 4 4 4 4 3 3 3 1 1 1 1 1 2 3 4 4 3 3 3 3 3 3 3 3 3 4 4 4 5 5 6 6 7 7 7 8 8 9 9 10 11 11 10 10 10 10 10 10 10 9 9 10 10 9 9 9 9
2 1 1 0 1 1 1 1 1 2 3 3 3 3 3 2 2 2 2 1 2 2 1 2 2 3 3 4 4 3 3 3 2 3 3 2 2 2 2 3 3 3 4 5 5 4 4 4 4 4 4 4 4 5 5 5 5 6 6 7 8 8 8 9 9 10 10 10 10 10 10 10 10 10 10 11 10 9 9 10 10 10 9 9 9
2 2 2 1 1 1 0 0 1 2 3 3 3 3 2 2 2 2 1 1 2 2 1 1 2 2 3 3 3 3 3 2 3 3 3 3 4 4 4 4 4 4 4 4 5 5 5 5 5 5 6 6 6 6 6 6 6 7 7 7 8 8 8 9 10 10 10 11 10 10 10 10 10 11 11 10 10 9 9 10 10 9 9 9 9
3 2 2 1 1 1 1 1 1 1 2 2 2 2 2 1 1 2 2 2 2 2 1 1 1 2 3 3 3 4 3 3 3 3 4 5 5 5 5 6 6 6 6 5 5 5 6 5 5 6 6 7 7 7 7 7 7 8 8 8 7 8 8 9 9 10 10 10 10 10 10 10 10 11 11 10 10 10 10 10 10 10 10 10 10
3 3 2 2 2 2 2 2 2 1 1 2 2 2 2 2 1 2 4 3 2 2 1 1 2 2 2 2 3 4 3 3 4 4 5 6 5 5 5 6 6 7 6 5 5 5 5 5 5 6 6 6 7 7 7 7 8 8 8 8 8 8 8 8 8 9 9 10 10 10 10 10 11 11 11 11 11 11 11 11 11 11 11 11 11
4 3 3 3 4 3 3 2 1 1 1 2 2 2 2 2 2 3 4 4 2 1 1 1 2 2 2 2 3 4 4 4 5 5 6 5 5 5 5 5 6 6 6 5 5 5 6 6 6 6 6 6 7 7 7 8 8 8 8 9 9 9 8 8 8 8 9 10 10 11 11 11 11 12 12 12 12 12 12 12 12 13 12 12 11
4 4 4 5 5 4 3 2 1 0 0 2 3 3 2 2 2 3 4 3 2 1 1 2 2 2 2 2 4 5 5 5 5 5 5 4 5 5 5 5 5 5 6 5 5 6 6 6 6 6 6 6 6 7 8 8 9 9 9 9 9 9 9 9 9 9 10 10 11 12 12 12 12 13 13 12 12 12 12 12 13 13 12 12 12
5 5 5 5 5 4 3 2 1 0 0 2 3 3 3 2 3 4 4 3 2 2 2 2 2 2 3 2 3 5 5 5 5 4 4 4 5 6 4 4 5 6 6 6 6 6 6 6 5 6 6 6 7 7 8 9 9 9 9 9 9 9 9 10 10 10 11 11 12 12 13 13 13 14 14 14 13 13 13 13 13 13 13 13 13
6 6 5 6 5 4 3 2 2 1 1 2 2 3 2 2 3 4 5 3 2 2 2 2 2 2 3 2 3 3 3 4 3 3 3 3 4 6 5 4 5 6 6 6 6 6 6 6 6 6 7 7 8 8 9 9 10 10 10 10 10 10 10 10 11 11 12 12 13 13 13 14 14 14 14 14 14 14 14 14 14 15 14 14 14
7 7 6 6 5 4 3 3 2 2 1 1 2 2 2 2 2 3 4 4 3 2 2 2 2 3 3 3 2 2 2 2 3 2 2 2 3 3 4 3 3 4 6 6 6 6 6 7 8 8 8 9 10 10 11 10 10 11 11 11 11 10 10 10 11 11 12 12 13 13 14 14 14 14 14 14 14 14 15 15 15 15 16 15 15
7 7 7 7 6 5 4 3 2 2 1 1 2 2 2 2 2 3 3 3 3 3 2 1 1 2 2 2 3 3 3 4 5 3 1 1 2 2 2 2 2 3 5 6 6 7 7 8 9 9 10 10 11 11 11 11 11 11 11 11 11 10 10 10 10 11 11 12 13 13 13 13 13 14 14 14 14 15 15 16 16 16 16 17 17
8 8 8 7 6 5 4 3 3 2 1 1 2 2 2 2 2 3 3 2 3 3 0 1 1 2 2 2 2 1 3 5 6 3 2 2 1 2 3 3 3 4 6 6 7 7 8 8 9 9 10 10 10 11 11 12 11 11 10 10 10 10 10 10 10 11 11 12 12 13 13 13 14 14 14 15 15 16 16 16 17 17 17 17 17
9 9 8 7 6 5 4 4 3 2 2 1 2 2 2 3 2 3 3 3 3 2 2 3 1 1 2 2 1 1 3 6 5 2 3 3 3 4 5 4 5 5 6 6 7 8 8 9 9 9 9 9 10 10 11 11 11 11 10 10 9 10 10 10 10 11 12 12 13 14 14 15 15 16 16 16 17 17 18 18 18 18 19 18 18
10 9 9 7 6 6 5 4 3 2 1 1 2 2 2 3 3 3 2 2 3 2 2 2 1 1 2 2 2 2 3 5 4 2 4 3 4 6 6 7 7 6 6 6 7 8 8 9 9 9 9 9 9 10 10 10 11 11 10 10 9 10 10 10 11 12 13 14 15 15 16 17 17 18 18 18 18 19 19 19 19 18 18 18 18
11 10 9 8 7 6 6 5 4 3 2 1 1 2 2 3 4 4 2 1 2 1 1 1 1 2 3 3 2 3 4 4 3 2 3 3 5 7 7 9 9 6 6 6 6 7 8 8 8 8 8 8 9 9 10 10 10 10 10 10 10 10 11 11 12 13 14 15 16 17 18 18 18 18 18 18 18 18 18 18 17 17 16 16 16
12 11 11 10 8 7 6 6 5 4 3 2 2 3 3 4 5 5 4 3 2 1 1 1 2 1 1 2 2 3 4 3 2 2 2 3 4 6 8 10 8 6 6 6 6 6 7 7 7 7 7 8 9 9 10 11 11 11 11 10 10 10 10 11 12 13 15 16 17 17 17 17 17 17 16 16 16 15 15 14 14 13 13 14 14
12 11 11 11 10 9 7 6 6 5 4 3 4 4 4 4 5 5 6 5 4 2 1 2 2 2 1 1 1 2 2 1 1 1 1 2 3 5 9 10 8 7 8 7 7 8 8 7 7 7 7 8 9 9 10 11 11 11 11 10 10 10 10 11 12 13 15 15 15 16 16 16 15 14 13 13 12 12 12 11 11 11 12 13 14
12 11 12 11 10 10 9 8 7 6 5 5 5 5 5 5 5 6 6 6 6 4 3 2 2 2 1 1 1 1 1 0 1 1 1 1 3 4 7 8 7 7 9 8 7 8 8 8 8 8 8 9 9 10 11 11 11 11 11 11 10 10 10 11 12 13 14 14 14 15 15 14 13 12 11 10 10 10 10 11 11 12 14 15 15
12 11 12 11 10 10 10 9 8 7 7 6 5 5 5 5 5 6 6 6 6 5 4 3 2 2 2 1 1 0 0 0 1 2 3 2 3 4 5 6 6 6 9 9 6 6 8 8 8 9 9 10 11 11 12 12 12 12 12 11 11 10 11 11 12 12 12 12 13 12 11 10 10 10 10 11 11 11 12 13 14 14 15 15 15
13 13 13 12 10 10 9 9 9 9 8 7 6 5 5 5 5 6 6 6 6 5 5 4 3 2 2 1 1 1 1 1 1 1 2 3 4 4 4 5 4 5 8 8 5 5 7 8 8 9 10 11 12 12 12 13 13 13 12 12 12 11 11 11 11 11 11 11 10 10 9 10 11 11 12 13 14 14 15 15 15 14 14 15 15
15 14 13 12 12 11 10 9 9 9 9 8 7 6 6 5 6 5 5 5 5 5 5 5 5 4 3 2 2 2 2 2 2 2 2 2 3 4 4 4 3 4 7 8 6 3 4 7 9 10 11 12 13 12 13 13 12 13 13 12 12 11 10 10 10 10 9 9 9 10 11 12 13 14 15 16 16 16 15 15 14 14 15 15 15
16 15 13 12 12 12 12 11 10 10 10 10 8 8 7 6 6 5 5 5 5 5 6 6 6 6 5 4 3 3 3 2 2 2 2 2 4 4 3 3 3 3 5 6 6 4 3 5 6 9 11 11 12 12 12 12 11 12 13 12 11 11 10 10 9 8 8 8 10 11 13 14 16 17 17 16 16 15 15 14 14 14 14 14 14
16 15 13 13 12 11 12 12 13 12 11 11 10 9 8 8 7 7 6 6 5 5 6 6 6 6 6 6 5 4 3 2 2 2 1 3 5 4 1 2 2 3 3 4 4 4 4 4 2 7 11 10 11 12 12 12 11 12 12 11 11 11 10 9 8 7 8 9 11 12 15 17 18 18 17 15 14 14 14 14 13 14 14 14 15
16 15 14 14 13 12 12 12 12 13 13 12 11 10 10 9 9 9 8 7 6 5 6 6 6 6 7 7 7 6 4 3 2 1 1 2 5 3 1 1 2 3 3 3 4 4 5 5 2 4 9 10 10 11 12 11 11 12 12 11 11 11 10 9 8 7 8 10 12 13 16 19 19 17 15 15 14 14 13 12 13 14 15 16 16
18 16 15 15 14 13 12 12 12 12 13 13 12 12 11 10 10 10 10 9 7 6 6 6 6 6 6 7 7 7 6 5 3 1 1 2 4 2 1 1 1 3 3 3 3 2 3 5 3 4 9 10 9 11 12 11 11 12 13 12 12 11 10 9 8 8 9 11 12 14 17 20 19 16 15 14 14 12 11 12 13 16 17 18 18
21 18 17 16 16 15 14 13 12 12 12 13 13 13 12 11 11 11 11 11 10 8 7 7 7 7 7 7 7 7 7 6 5 3 2 3 3 1 0 0 1 2 2 3 3 2 3 5 4 5 9 10 9 11 12 12 12 13 14 14 12 10 10 9 9 9 10 12 13 16 19 20 18 16 14 13 12 11 11 13 15 18 19 19 19
24 21 19 18 18 17 15 14 14 13 13 13 13 13 13 13 12 11 12 13 12 10 9 8 8 8 8 7 7 7 7 7 6 6 5 4 3 2 2 2 3 3 3 3 3 3 5 6 6 7 10 11 10 11 11 12 13 14 14 14 12 10 9 9 9 10 11 13 15 18 20 19 17 14 13 12 11 11 12 15 17 19 19 20 20
26 24 22 21 20 19 18 17 16 15 14 14 14 14 14 14 14 12 11 13 14 13 11 9 9 9 9 8 8 7 7 8 7 7 6 5 5 5 5 5 5 5 5 5 5 6 6 7 9 9 9 11 11 12 13 12 13 14 15 15 13 10 8 7 8 11 13 15 17 18 18 17 15 13 12 12 12 12 15 17 18 19 20 21 22
27 27 25 24 23 22 21 20 19 17 16 15 15 15 16 15 15 14 14 14 14 14 14 12 11 10 10 10 10 9 9 8 8 7 7 7 7 7 7 7 6 7 6 6 7 9 8 8 10 11 11 12 12 12 14 12 12 14 14 14 13 11 8 6 6 11 14 16 17 17 16 15 13 12 12 12 13 15 16 18 19 20 21 23 24
28 28 28 27 25 24 23 22 21 20 18 17 16 17 17 16 16 16 16 16 15 15 15 15 13 12 12 12 12 11 11 10 9 9 8 8 8 8 8 7 7 7 8 7 7 9 10 9 10 10 11 12 11 11 13 13 13 15 14 13 12 9 8 7 5 10 15 16 16 16 14 13 12 12 12 13 15 16 17 18 20 21 23 24 25
30 30 29 29 28 26 24 23 22 22 21 20 19 18 19 18 18 17 17 17 16 16 16 16 15 13 13 13 12 11 11 12 11 10 9 9 9 9 9 9 8 8 8 9 9 9 11 11 10 10 10 11 11 11 13 13 13 14 14 12 11 8 6 6 5 8 14 15 15 15 13 12 12 12 13 14 15 16 17 19 20 22 24 25 26
31 31 30 30 30 28 26 25 24 24 24 23 22 21 21 20 20 20 18 18 18 17 17 16 15 14 14 14 13 12 12 13 13 12 12 11 11 10 10 11 11 11 10 11 11 10 11 11 10 10 12 13 13 13 13 12 12 13 13 11 10 7 5 5 5 8 12 13 14 14 12 12 12 12 13 14 15 16 17 19 21 22 23 24 26
31 32 32 32 31 30 29 28 28 27 26 26 25 25 24 23 22 22 21 20 20 19 19 18 17 17 16 16 15 14 14 15 15 14 13 13 13 12 11 11 12 11 11 11 12 11 11 11 11 12 13 14 14 14 14 12 10 11 12 11 10 8 6 4 4 7 10 11 12 12 12 12 12 12 13 14 14 16 17 19 21 22 22 24 26
31 32 32 33 33 33 33 32 31 30 29 28 28 28 26 25 25 24 23 23 22 22 22 21 20 19 19 18 17 17 17 17 17 16 15 15 14 13 12 12 11 11 11 11 11 11 11 11 12 12 11 12 13 13 13 13 12 11 9 8 9 8 7 5 4 5 5 6 8 9 10 12 12 11 12 13 14 15 17 19 19 20 22 23 25
31 30 30 33 35 35 35 35 34 34 33 31 31 30 29 27 27 26 25 24 24 24 24 23 21 20 20 20 19 19 20 20 19 18 17 16 15 13 13 13 11 11 11 10 10 10 11 11 11 11 10 10 11 13 14 15 14 11 7 6 7 7 7 6 5 4 3 4 6 7 9 11 12 12 12 12 13 14 16 17 18 19 21 23 24
30 30 29 31 33 35 35 35 36 35 35 34 32 31 31 30 29 28 27 27 25 25 26 25 23 22 21 20 20 20 22 22 21 19 18 17 15 14 14 14 12 11 11 10 10 10 10 10 10 10 9 10 10 12 12 12 10 7 6 7 8 7 7 6 6 4 2 2 3 5 8 9 10 11 11 11 12 14 15 16 17 19 21 22 23
30 29 28 28 29 32 34 35 36 35 35 34 34 33 32 32 31 30 29 29 27 26 26 25 23 23 24 22 20 21 24 24 22 20 19 18 17 16 15 15 14 13 12 11 11 10 10 10 10 9 9 10 9 9 9 8 7 8 9 9 8 7 7 7 6 4 3 2 3 4 6 7 7 8 9 9 11 13 13 14 16 18 19 21 22
31 30 30 28 27 29 31 33 34 35 35 36 36 35 34 33 32 31 30 31 30 28 27 26 23 23 24 24 23 24 25 25 23 22 21 20 19 18 17 16 16 15 13 12 12 11 10 9 9 9 10 10 9 8 8 9 9 9 9 8 7 6 7 8 7 5 4 4 4 6 7 8 8 8 8 7 9 11 11 12 14 16 18 20 21
32 33 32 30 28 27 27 29 31 32 34 37 37 36 35 34 33 32 31 31 31 30 28 27 25 23 23 24 25 26 26 26 24 24 23 21 20 20 19 19 19 18 16 14 13 11 10 10 11 10 11 12 10 9 9 9 9 10 9 7 7 6 6 8 8 7 6 5 5 7 9 10 9 8 8 7 7 9 10 11 13 15 17 19 20
32 32 30 30 31 29 26 26 28 29 32 36 37 36 35 35 33 32 30 27 26 27 27 27 26 24 23 22 23 23 24 25 25 24 23 22 21 20 20 20 20 20 19 18 16 14 11 11 12 12 12 13 12 11 10 10 10 10 10 9 8 7 7 8 8 8 8 6 6 8 10 11 10 8 8 8 7 7 9 10 11 14 15 17 18
31 30 30 30 31 31 28 27 28 28 29 33 36 36 35 34 33 33 31 27 24 24 25 26 26 24 24 23 22 22 24 26 25 24 23 23 22 20 20 19 19 20 20 20 20 18 16 14 13 14 15 14 13 13 13 14 14 12 10 10 9 8 8 9 9 9 8 6 7 9 10 11 10 7 6 8 8 7 8 9 10 12 14 15 17
29 31 31 29 30 32 32 30 30 29 28 31 35 36 35 34 33 33 32 30 25 24 25 26 25 25 25 26 25 24 26 28 27 25 24 23 21 20 20 19 20 20 19 19 20 20 20 20 19 19 19 17 18 19 18 17 17 14 12 11 9 9 9 10 11 10 9 8 7 9 10 10 9 6 5 7 9 7 6 7 8 10 11 13 15
30 34 34 31 30 33 34 32 31 30 30 32 35 35 35 35 33 33 33 32 29 25 25 27 28 28 27 27 28 27 27 28 28 26 24 22 20 19 18 18 18 19 20 20 20 19 20 21 22 23 23 22 21 21 18 17 16 16 15 14 13 12 11 10 11 10 9 9 8 9 9 8 7 7 6 7 8 6 5 7 7 7 9 11 13
27 30 32 32 32 34 34 33 31 30 31 33 35 36 36 35 33 33 33 34 33 29 26 27 29 31 31 30 30 29 29 29 30 28 25 23 19 17 17 17 17 18 19 20 21 19 18 19 20 21 22 21 21 19 17 16 16 16 15 15 15 14 11 10 11 10 9 10 10 10 10 8 7 7 6 7 8 6 5 6 5 5 7 9 12
25 25 27 29 30 31 32 32 32 32 32 34 36 36 36 34 33 33 34 35 35 32 29 28 29 32 33 33 32 31 31 31 30 29 27 24 21 18 17 17 17 17 18 19 21 21 20 19 20 20 20 20 19 18 17 16 17 16 14 13 13 12 11 10 11 10 9 9 10 11 11 10 9 8 6 6 9 9 6 6 5 4 4 7 10
27 26 25 26 27 28 29 30 32 32 32 33 36 37 36 35 34 34 35 35 34 33 31 29 29 31 34 34 34 33 32 32 31 30 27 26 24 22 19 18 18 18 19 18 19 21 22 21 21 20 20 19 18 18 17 16 17 18 18 17 15 12 12 11 11 11 10 10 11 12 12 10 9 9 7 5 8 10 8 7 6 4 2 4 8
28 26 24 24 25 26 28 29 31 32 30 30 33 35 35 35 34 35 36 35 33 31 30 29 29 30 33 35 35 35 34 33 32 30 29 28 27 25 21 19 19 20 20 19 19 20 21 21 22 21 20 19 17 17 17 16 16 18 20 21 17 14 14 13 13 12 11 10 11 13 13 11 9 10 9 6 5 6 7 7 7 5 3 1 4
Wind_Direction
130 131 128 126 125 122 120 119 120 116 105 89 77 75 72 69 69 72 72 66 57 51 49 49 53 57 59 52 47 49 54 62 69 80 89 94 98 93 96 101 98 93 89 84 75 64 58 51 49 48 47 44 45 47 42 38 36 33 30 28 26 21 18 12 5 1 359 357 353 350 349 348 348 348 348 349 350 350 352 353 356 359 357 357 358
136 135 131 127 127 125 122 117 112 111 98 83 80 73 70 69 68 74 76 72 60 49 49 54 59 56 50 45 43 45 51 54 57 71 81 87 92 84 81 88 93 91 85 79 76 63 53 46 40 39 38 35 34 33 29 26 23 24 23 19 14 6 1 355 350 347 346 344 342 341 339 340 340 340 342 344 345 347 348 350 353 355 351 349 353
133 127 125 121 126 129 117 106 93 98 92 80 83 76 71 72 77 90 88 84 69 49 48 51 55 52 43 42 45 48 50 51 50 56 72 79 78 76 59 55 49 48 61 50 41 35 30 26 22 22 20 17 19 15 10 9 7 6 4 0 355 348 342 339 338 337 335 332 331 332 331 332 334 336 338 340 343 346 347 347 347 347 344 343 348
134 127 121 107 118 134 82 79 69 78 81 74 77 78 74 70 85 111 112 104 91 61 48 50 47 41 42 44 45 48 44 45 49 45 47 31 6 35 40 29 2 350 352 352 354 353 351 356 355 352 351 351 352 346 346 350 345 343 341 339 335 332 328 326 325 324 324 325 326 328 330 331 333 336 336 337 340 340 340 340 339 340 338 339 345
144 143 136 109 99 322 338 1 47 73 81 76 72 72 73 65 80 115 125 116 116 114 69 60 43 32 39 40 36 39 35 34 37 32 28 13 325 319 331 355 343 336 338 335 333 329 325 326 322 321 324 326 326 325 328 329 325 326 327 324 323 324 321 317 318 321 322 323 325 327 327 329 329 330 329 330 332 331 331 333 334 335 334 336 340
186 190 184 257 287 285 299 327 53 91 90 83 70 64 68 65 77 105 124 134 139 144 115 85 43 30 35 29 26 23 18 15 12 12 11 3 350 340 327 329 331 332 333 329 330 326 313 308 308 310 312 312 312 313 314 313 310 312 314 313 313 315 315 313 314 317 320 320 320 320 320 320 320 320 322 323 324 325 325 327 329 331 331 332 330
233 243 257 271 274 268 218 207 137 105 87 79 68 66 70 69 82 103 118 145 151 151 132 95 36 29 19 13 16 8 4 352 346 350 353 353 354 352 345 339 335 331 331 324 324 329 327 320 316 316 315 314 313 309 308 305 301 299 299 301 303 306 308 306 307 309 312 314 314 313 313 314 314 316 319 321 321 321 321 321 324 325 326 324 319
242 244 253 257 236 205 179 188 162 115 89 76 69 72 77 72 92 126 132 150 157 147 132 83 23 16 7 8 2 351 349 336 335 338 339 342 342 342 345 349 349 344 343 338 331 333 337 336 330 325 322 321 320 319 317 313 308 304 302 300 299 299 300 300 303 305 309 311 312 310 310 311 312 313 314 316 316 315 315 314 316 318 319 318 314
229 224 215 208 185 169 172 182 163 136 114 87 81 82 86 91 110 140 146 153 155 129 107 50 22 6 5 12 351 340 334 325 327 330 337 341 338 337 339 345 352 353 350 344 340 342 342 341 337 332 330 329 327 327 327 326 325 322 319 317 312 307 303 302 302 303 307 310 311 310 310 311 312 312 311 311 310 310 311 309 309 309 309 310 311
210 201 186 181 171 167 171 175 164 140 123 98 88 81 86 100 108 133 143 144 137 109 85 37 15 9 13 7 347 339 332 331 336 339 340 340 340 344 348 351 354 355 355 344 339 343 341 339 339 338 338 335 333 332 333 332 331 330 328 327 324 322 318 315 313 312 312 311 312 314 315 316 315 316 316 315 313 311 311 310 308 307 305 304 304
203 192 182 178 172 174 174 171 180 178 121 96 88 84 88 96 101 115 122 121 113 82 49 20 2 356 355 347 337 334 334 340 342 341 343 344 351 356 355 359 1 356 356 352 344 340 341 341 341 343 345 344 344 341 339 337 333 329 326 325 325 328 328 328 329 328 324 321 321 322 322 322 322 322 322 321 320 317 316 314 313 312 309 307 303
202 195 185 181 176 176 173 175 191 189 55 69 86 97 102 98 107 114 108 94 80 55 31 13 355 343 341 337 333 329 332 342 342 339 345 349 359 6 359 357 4 2 354 351 348 345 344 346 346 346 348 350 350 347 345 343 339 333 325 322 323 325 329 331 333 332 330 329 328 329 329 328 328 327 326 324 324 323 322 320 318 316 314 312 309
200 197 191 188 180 174 179 186 191 162 115 75 83 102 111 109 113 114 105 90 68 48 25 5 349 349 353 355 351 340 335 342 344 343 346 346 353 3 6 0 2 2 356 351 352 349 341 341 342 342 342 342 343 343 344 344 343 340 333 328 327 326 328 328 330 331 331 332 331 332 332 331 331 329 328 327 326 326 325 324 322 321 319 316 313
200 198 195 192 184 178 190 197 193 170 129 99 99 106 111 110 104 98 91 83 62 20 351 351 0 4 352 352 19 44 58 24 6 359 354 0 357 354 358 359 351 348 349 347 346 340 327 325 328 329 330 333 336 337 339 340 340 339 336 335 332 329 329 328 329 330 331 332 333 334 334 334 334 332 331 330 329 329 328 327 326 325 323 321 319
201 201 197 195 191 187 197 201 197 191 133 92 108 114 112 111 107 90 79 71 48 4 319 296 12 8 344 357 28 54 86 50 14 14 11 0 5 351 342 338 322 329 339 337 333 331 323 319 320 323 327 330 335 337 338 340 340 339 339 338 337 335 333 332 332 332 333 334 334 335 336 335 335 334 333 332 331 330 329 329 328 327 325 324 322
204 202 199 196 193 192 197 197 195 196 191 108 113 125 128 124 112 92 78 72 55 23 83 163 29 6 355 13 14 36 82 30 6 25 20 358 11 351 339 323 320 337 341 331 325 326 326 326 327 329 332 334 337 340 341 343 344 344 344 343 342 340 339 337 337 336 335 336 335 334 334 333 332 331 330 330 329 329 328 328 327 325 324 322 321
207 205 201 197 193 196 200 197 194 192 192 168 136 144 150 145 133 110 84 75 68 58 121 133 64 357 347 3 11 49 52 7 357 29 10 20 37 2 353 338 325 336 341 335 332 334 333 334 336 336 337 339 341 342 344 346 346 346 348 349 346 342 340 337 335 334 334 333 332 331 330 329 328 327 326 326 326 326 326 325 324 323 322 321 319
211 207 203 201 198 201 208 207 203 201 203 186 160 160 163 163 158 144 116 86 77 74 129 131 20 310 282 300 349 4 0 349 350 356 350 11 19 9 10 1 351 352 352 348 344 343 343 341 341 341 342 343 344 346 347 348 348 348 349 349 344 339 335 333 332 331 330 329 329 328 328 327 326 325 324 323 323 322 323 322 322 322 321 320 319
215 214 210 210 208 208 213 216 216 218 217 197 187 184 176 183 183 176 180 149 99 78 145 177 272 285 273 265 283 310 323 331 329 336 346 351 2 13 17 7 8 10 5 1 348 343 348 347 344 344 347 350 351 350 349 350 349 349 350 348 344 339 336 334 332 331 329 329 328 328 327 326 325 324 323 321 321 321 321 321 322 322 322 323 321
219 220 218 218 219 215 214 217 220 223 220 212 209 205 194 195 195 194 203 204 177 152 186 223 242 246 308 286 280 304 317 330 316 317 334 331 354 16 10 6 18 26 18 20 13 5 1 356 352 351 357 0 358 354 351 351 351 349 350 347 340 335 331 329 328 328 328 328 328 328 327 326 324 323 322 322 321 321 322 323 324 325 325 323 320
222 223 222 223 223 220 216 215 218 223 223 225 219 209 204 203 204 206 211 212 211 216 218 236 246 234 293 316 312 317 321 0 1 301 330 337 353 6 2 3 21 32 23 21 23 22 18 16 21 19 16 11 2 358 356 353 352 350 346 339 329 321 317 317 320 322 324 325 327 329 329 328 328 327 327 327 327 327 327 329 329 328 324 320 317
227 225 224 223 221 220 220 216 216 221 221 226 220 211 210 210 212 214 214 214 215 220 222 223 239 237 252 284 304 326 328 69 32 351 358 345 330 348 1 2 10 20 14 11 20 26 27 34 39 32 21 16 10 6 4 1 358 353 347 337 328 321 318 317 321 323 326 329 331 333 334 335 338 339 339 338 337 334 331 330 329 326 323 320 318
231 231 229 226 219 218 220 220 220 221 220 224 222 214 214 215 218 220 217 217 218 224 227 224 225 232 258 276 263 280 309 327 354 0 356 346 330 338 359 359 354 5 7 10 21 30 35 39 37 33 28 26 24 19 16 11 5 358 349 343 337 334 331 330 332 334 335 337 338 342 347 354 356 354 350 346 340 335 330 327 327 327 326 324 322
234 234 233 229 223 218 219 221 221 221 222 225 223 217 216 218 221 222 222 224 226 232 232 229 226 228 249 256 230 233 251 298 314 333 340 344 332 326 345 350 342 356 4 9 16 25 38 41 40 41 39 35 31 25 20 15 7 357 350 348 347 344 342 342 343 344 346 351 357 5 11 9 2 354 347 341 335 331 330 329 331 331 330 329 326
238 238 236 234 231 227 224 222 221 220 220 224 225 221 218 221 225 226 227 229 233 242 240 232 226 226 234 236 228 239 254 283 292 291 305 329 325 320 336 333 323 353 3 2 1 12 50 53 52 47 42 37 31 25 21 15 6 357 352 353 354 351 350 350 351 355 2 9 15 16 11 2 353 346 340 337 334 333 333 334 336 337 335 334 333
244 244 243 241 237 236 234 232 230 226 221 223 227 227 223 224 228 229 231 234 239 249 248 237 228 228 233 238 240 247 263 273 268 277 296 330 335 324 324 309 302 352 6 359 3 22 50 52 52 42 38 37 32 25 21 17 9 358 356 359 360 357 355 356 359 7 13 12 10 6 359 352 345 341 339 338 338 338 337 339 341 341 341 340 341
247 249 250 247 243 241 239 237 236 232 225 224 228 231 228 229 232 232 234 242 249 252 250 240 231 233 235 240 245 248 258 259 252 276 309 347 347 334 301 307 326 8 10 2 15 38 35 24 44 37 31 30 28 23 21 20 11 0 1 5 2 359 357 359 4 9 9 4 1 357 351 348 344 342 342 342 342 340 340 342 345 346 346 345 345
249 251 251 249 246 242 240 238 237 232 226 224 228 232 232 234 237 237 239 248 257 257 251 242 236 236 237 240 245 245 245 245 248 292 349 359 359 6 173 267 343 1 2 3 19 45 35 22 31 25 19 20 23 20 20 19 9 4 9 8 1 359 358 358 360 360 359 356 352 350 348 347 346 345 344 342 341 342 343 347 351 350 349 347 348
248 249 249 247 245 243 242 241 239 235 231 228 228 230 233 238 239 240 244 249 258 260 250 244 238 235 236 238 241 240 238 239 240 258 329 349 358 16 127 148 352 347 347 353 1 16 15 12 14 358 2 8 12 14 17 16 9 9 13 8 1 0 356 352 350 351 353 351 350 351 349 348 347 345 343 342 343 347 351 354 355 353 351 352 353
244 246 248 248 246 244 244 244 244 242 239 235 232 231 233 238 240 243 246 247 253 256 252 252 246 239 238 237 238 236 232 234 235 238 272 321 334 318 221 169 326 314 318 325 329 321 331 347 351 340 347 355 359 3 8 9 8 10 11 7 0 355 351 351 352 353 354 354 355 354 351 347 346 345 347 350 354 355 357 358 356 355 355 356 355
242 245 247 249 249 247 247 249 250 248 245 242 239 236 234 238 241 243 245 246 248 250 252 258 255 247 241 235 236 237 234 235 236 237 250 276 292 272 252 263 272 267 274 287 294 297 306 319 328 330 336 342 348 353 357 360 4 9 9 5 357 350 355 2 0 0 0 358 358 355 350 347 347 352 358 1 0 359 359 360 358 357 358 357 355
242 244 247 249 250 250 251 252 254 253 250 246 244 242 239 241 243 242 243 246 246 245 248 255 259 257 249 240 240 243 243 246 246 246 248 253 258 255 249 253 260 260 258 259 277 288 290 302 314 319 325 331 336 344 350 354 358 4 5 2 0 0 11 17 5 3 5 360 357 354 350 350 354 0 5 4 2 1 1 0 359 359 358 355 353
242 244 246 248 250 251 253 254 255 255 253 250 248 247 246 246 247 246 247 249 247 245 247 251 258 263 259 253 253 255 257 256 254 254 255 252 251 249 247 246 249 255 255 253 272 288 292 302 312 315 321 327 330 338 347 348 349 359 3 2 4 6 18 30 5 360 3 358 356 356 355 358 2 5 7 5 3 2 2 1 359 358 356 353 354
242 243 245 247 250 252 253 254 255 255 255 254 252 251 250 251 251 251 251 252 251 248 249 251 254 258 262 262 261 262 265 265 264 262 259 256 254 251 249 246 245 252 258 259 268 287 295 302 310 313 318 326 329 334 343 343 344 356 2 0 1 3 14 29 10 354 358 357 358 1 3 6 7 8 9 6 3 1 0 359 358 356 355 355 357
240 242 243 245 248 250 252 253 254 255 255 255 254 253 253 253 253 253 254 255 255 252 251 252 252 252 256 259 258 257 261 265 266 264 260 259 257 256 254 251 252 255 261 265 267 278 294 300 304 309 314 320 324 328 337 341 344 353 358 356 358 360 5 18 11 352 351 355 2 7 9 11 10 9 7 4 1 359 358 357 357 356 356 358 2
237 241 242 243 245 247 249 250 253 255 255 255 255 255 255 255 254 254 255 257 258 256 254 253 251 250 251 254 255 254 256 262 264 262 261 261 260 259 256 253 256 257 257 265 267 270 284 293 296 301 307 312 316 323 331 337 340 347 352 354 357 354 352 3 2 346 345 354 5 10 11 11 8 5 3 1 0 358 356 356 357 358 0 3 5
234 238 240 240 241 243 244 247 250 252 254 254 255 255 256 257 256 255 256 258 259 259 259 258 256 255 254 253 254 255 255 259 261 259 257 259 259 257 255 253 255 257 256 262 266 265 271 281 288 294 302 308 312 318 325 329 331 336 344 353 356 352 345 347 350 345 346 356 6 8 8 6 2 359 359 0 359 356 355 357 358 1 5 7 8
231 235 237 238 239 240 241 244 247 250 252 253 254 255 256 257 257 256 256 258 261 261 260 260 259 258 258 256 256 257 256 255 256 256 257 258 258 254 254 255 256 257 257 258 260 261 262 271 280 286 293 300 304 310 317 321 323 323 326 340 351 352 349 346 347 349 344 352 2 4 1 359 355 353 356 358 356 354 355 358 0 4 8 9 8
230 231 233 236 238 239 241 242 245 247 249 251 252 254 254 254 256 256 255 256 259 260 260 259 257 257 257 256 256 257 259 259 257 256 256 258 257 253 254 257 256 254 255 254 254 256 258 265 273 278 284 292 296 301 308 315 319 319 316 325 337 345 347 342 340 344 328 329 350 354 351 352 349 347 349 352 353 354 356 359 2 6 9 9 7
228 229 230 233 237 239 240 242 244 246 247 248 249 251 252 252 253 254 255 255 255 256 258 259 256 256 255 254 252 254 258 261 260 258 256 255 255 254 256 258 256 253 254 254 252 253 256 262 268 272 277 282 286 293 302 309 313 309 306 316 321 326 334 333 328 332 316 297 328 340 342 345 343 340 343 346 350 355 358 0 4 6 7 7 5
228 228 229 230 234 237 239 241 243 244 245 246 247 248 249 250 250 251 252 255 254 253 254 255 254 255 256 254 251 251 256 259 261 261 260 257 256 255 256 260 259 255 252 252 252 252 254 259 263 267 270 272 275 281 288 293 296 298 301 308 310 310 320 325 319 317 312 284 282 299 319 331 329 327 334 340 345 354 0 1 3 5 5 4 4
229 229 230 229 230 234 237 239 241 242 242 245 247 249 248 248 249 249 250 253 254 252 251 252 251 251 254 255 254 254 258 261 261 261 261 260 259 257 256 258 259 255 249 250 251 250 251 257 261 264 266 268 269 270 276 284 290 294 293 295 296 297 314 323 315 305 308 303 288 289 302 319 323 319 321 329 339 351 1 1 1 4 2 2 3
229 229 229 229 229 230 232 235 238 239 241 245 248 249 249 248 247 246 248 251 252 251 250 250 249 249 250 254 256 258 260 261 260 259 260 260 260 260 260 260 259 256 250 247 250 249 250 256 260 261 263 267 269 269 274 281 287 288 286 283 283 282 295 310 310 302 299 297 294 290 292 305 315 307 302 312 328 344 354 357 359 1 1 0 3
228 227 226 227 229 230 229 231 234 235 239 245 249 250 249 249 247 245 244 245 246 247 247 246 248 248 246 248 251 253 256 259 260 260 261 262 263 262 262 262 262 260 256 252 251 250 249 254 259 260 260 264 268 266 270 279 288 291 286 276 271 268 273 287 292 292 289 285 291 291 286 293 304 298 290 301 319 335 341 348 356 359 359 360 3
225 225 224 225 229 230 228 229 233 234 237 244 249 250 249 249 247 244 241 240 240 242 243 245 245 245 245 246 246 246 251 257 259 259 259 262 264 265 264 262 260 260 259 257 255 252 250 253 257 258 257 260 263 266 273 283 289 289 281 273 268 263 265 273 276 279 280 270 273 283 279 280 289 283 273 291 307 320 327 339 353 356 356 360 4
221 224 225 223 226 229 229 230 233 235 237 242 247 250 250 248 247 245 241 240 240 241 242 244 244 243 244 246 246 247 251 256 258 258 257 258 261 263 263 261 259 260 262 260 257 254 251 250 251 256 258 258 263 272 278 283 285 284 277 273 269 264 266 272 273 272 271 261 260 276 278 271 271 263 248 275 295 305 312 323 341 351 355 0 5
220 225 225 222 223 228 230 229 231 234 237 241 245 248 250 249 246 245 242 240 239 241 242 244 245 246 246 246 248 249 250 253 256 257 257 255 254 255 256 255 257 259 261 261 259 256 253 252 252 257 262 263 267 274 277 276 278 281 278 274 271 268 268 271 271 265 262 258 251 259 270 264 258 254 243 258 279 285 286 301 324 344 354 1 7
223 225 224 222 221 225 227 226 226 231 236 239 242 246 249 249 246 243 242 241 240 239 241 243 245 248 248 247 249 250 251 253 256 258 257 253 248 245 246 246 248 251 255 259 262 259 257 258 258 260 264 268 270 273 272 268 267 271 275 274 269 264 258 259 263 259 255 258 249 245 259 261 247 243 241 250 265 264 254 270 299 328 347 4 13
225 225 224 224 224 225 226 224 223 226 231 235 239 243 247 247 243 240 239 240 240 239 240 242 244 247 249 249 249 250 251 252 255 258 258 253 245 240 241 243 244 246 250 256 261 262 260 261 263 265 266 268 270 271 268 263 260 258 258 258 255 249 238 242 256 256 250 253 245 237 247 254 241 232 231 244 261 262 243 232 252 292 339 11 20
224 226 227 228 229 229 228 227 226 228 230 233 236 240 243 244 241 238 238 238 238 238 239 240 241 245 248 250 249 249 250 252 255 257 256 252 246 239 238 240 243 246 249 250 255 262 265 266 267 268 268 267 268 268 266 263 262 257 250 247 248 245 237 237 249 261 264 261 247 235 234 238 232 224 218 228 256 259 244 224 226 244 307 17 26
225 227 228 229 230 231 232 232 232 232 233 234 235 237 240 240 238 237 237 235 234 235 237 238 239 242 246 249 250 249 250 252 254 255 254 251 246 240 236 237 240 244 247 248 250 256 263 268 271 271 272 272 270 268 266 263 261 258 253 251 249 242 238 242 248 259 269 264 247 234 227 224 219 213 211 218 243 244 228 217 214 211 204 68 32